Arethusa — 9HJR9 — position and weather

sailwx.info

Track history (hours):
 
Tides and Currents Weather Stations Pressure Air Temp Water Temp Dewpoint Dewpoint Depression Visibility Wind Speed Wind Dir Waves Ship Positions

Arethusa

Last reported at 2014-Oct-31 03:15 UTC. Time now 2014-Oct-31 07:38 UTC.
Position N 43°06' E 009°39'.

Length 60 m; draft 3 m.

Type: Passenger vessel. MMSI: 249069000.

Date/timePositionNaut miles runAvg speedWind from/ knotsBaromVisibWave heightAir tempDewpointWater temp
2014-Oct-31 03:15N 43°06' E 009°39'7 9.9
2014-Oct-31 02:31N 43°14' E 009°41'1010.0
2014-Oct-31 01:33N 43°23' E 009°44'1010.0
2014-Oct-31 00:34N 43°32' E 009°48'1010.0
2014-Oct-30 23:34N 43°42' E 009°53'1010.0
2014-Oct-30 22:33N 43°51' E 009°57'1010.0
2014-Oct-30 21:33N 44°01' E 010°02'2 1.5
2014-Oct-30 20:32N 44°02' E 010°02'0 0.0
2014-Oct-30 19:29N 44°02' E 010°02'0 0.0
2014-Oct-30 18:32N 44°02' E 010°02'0 0.0
2014-Oct-30 17:32N 44°02' E 010°02'0 0.0
2014-Oct-30 16:32N 44°02' E 010°02'0 0.0
2014-Oct-30 15:29N 44°02' E 010°02'0 0.0
2014-Oct-30 14:32N 44°02' E 010°02'0 0.0
2014-Oct-30 13:32N 44°02' E 010°02'0 0.0
2014-Oct-30 12:32N 44°02' E 010°02'0 0.0
2014-Oct-30 11:33N 44°02' E 010°02'0 0.0
2014-Oct-30 10:33N 44°02' E 010°02'0 0.0
2014-Oct-30 09:33N 44°02' E 010°02'0 0.0
2014-Oct-30 08:33N 44°02' E 010°02'0 0.0
2014-Oct-30 07:33N 44°02' E 010°02'0 0.0
2014-Oct-30 06:33N 44°02' E 010°02'4 4.3
2014-Oct-30 05:33N 44°01' E 009°57'5 4.8
2014-Oct-30 04:31N 44°03' E 009°51'0 0.0
2014-Oct-30 03:31N 44°03' E 009°51'0 0.0
2014-Oct-30 02:31N 44°03' E 009°51'0 0.0
2014-Oct-30 01:31N 44°03' E 009°51'0 0.0
2014-Oct-30 00:31N 44°03' E 009°51'0 0.0
2014-Oct-29 23:31N 44°03' E 009°51'0 0.0
2014-Oct-29 22:31N 44°03' E 009°51'0 0.0
2014-Oct-29 21:31N 44°03' E 009°51'0 0.0
2014-Oct-29 20:28N 44°03' E 009°51'0 0.0
2014-Oct-29 19:31N 44°03' E 009°51'0 0.0
2014-Oct-29 18:31N 44°03' E 009°51'0 0.0
2014-Oct-29 17:31N 44°03' E 009°51'0 0.0
2014-Oct-29 16:28N 44°03' E 009°51'0 0.0
2014-Oct-29 15:31N 44°03' E 009°51'0 0.0
2014-Oct-29 14:31N 44°03' E 009°51'0 0.0
2014-Oct-29 13:31N 44°03' E 009°51'0 0.0
2014-Oct-29 12:31N 44°03' E 009°51'0 0.0
2014-Oct-29 11:31N 44°03' E 009°51'0 0.0
2014-Oct-29 10:31N 44°03' E 009°51'0 0.0
2014-Oct-29 09:31N 44°03' E 009°51'0 0.0
2014-Oct-29 08:31N 44°03' E 009°51'0 0.0
2014-Oct-29 07:31N 44°03' E 009°51'0 0.0
2014-Oct-29 06:31N 44°03' E 009°51'0 0.0
2014-Oct-29 05:31N 44°03' E 009°51'0 0.0
2014-Oct-29 04:31N 44°03' E 009°51'0 0.0
2014-Oct-29 03:31N 44°03' E 009°51'0 0.0
2014-Oct-29 02:31N 44°03' E 009°51'0 0.0
2014-Oct-29 01:31N 44°03' E 009°51'0 0.0
2014-Oct-29 00:31N 44°03' E 009°51'0 0.0
2014-Oct-28 23:31N 44°03' E 009°51'0 0.0
2014-Oct-28 22:31N 44°03' E 009°51'0 0.0
2014-Oct-28 21:31N 44°03' E 009°51'4 4.2
2014-Oct-28 20:34N 44°01' E 009°55'9 9.1
2014-Oct-28 19:33N 44°01' E 009°43'10 9.8
2014-Oct-28 18:33N 44°07' E 009°32'10 9.5
2014-Oct-28 17:33N 44°14' E 009°23'5 0.4
2014-Oct-28 05:32N 44°17' E 009°17'1 0.9
2014-Oct-28 04:32N 44°17' E 009°18'1 1.4
2014-Oct-28 03:31N 44°18' E 009°16'0 0.4
2014-Oct-28 02:27N 44°18' E 009°15'1 0.5
2014-Oct-28 01:24N 44°18' E 009°16'0 0.4
2014-Oct-28 00:14N 44°18' E 009°16'2 2.6
2014-Oct-27 23:33N 44°16' E 009°16'9 9.5
2014-Oct-27 22:33N 44°14' E 009°03'10 9.7
2014-Oct-27 21:33N 44°13' E 008°49'11 9.1
2014-Oct-27 20:20N 44°11' E 008°34'7 9.2
2014-Oct-27 19:33N 44°08' E 008°25'55 8.9
2014-Oct-27 13:22N 43°40' E 007°19'2 2.7
2014-Oct-27 12:32N 43°42' E 007°17'0 0.0
2014-Oct-27 11:32N 43°42' E 007°17'0 0.0
2014-Oct-27 10:32N 43°42' E 007°17'0 0.0
2014-Oct-27 09:32N 43°42' E 007°17'0 0.0
2014-Oct-27 08:32N 43°42' E 007°17'0 0.0
2014-Oct-27 07:32N 43°42' E 007°17'0 0.0
2014-Oct-27 06:32N 43°42' E 007°17'0 0.0
2014-Oct-27 05:32N 43°42' E 007°17'0 0.0
2014-Oct-27 04:32N 43°42' E 007°17'0 0.0
2014-Oct-27 03:32N 43°42' E 007°17'0 0.0
2014-Oct-27 02:32N 43°42' E 007°17'0 0.0
2014-Oct-27 01:32N 43°42' E 007°17'0 0.0
2014-Oct-27 00:32N 43°42' E 007°17'0 0.0
2014-Oct-26 23:32N 43°42' E 007°17'0 0.0
2014-Oct-26 22:32N 43°42' E 007°17'0 0.0
2014-Oct-26 21:32N 43°42' E 007°17'0 0.0
2014-Oct-26 20:32N 43°42' E 007°17'0 0.0
2014-Oct-26 19:32N 43°42' E 007°17'0 0.0
2014-Oct-26 18:32N 43°42' E 007°17'0 0.0
2014-Oct-26 17:32N 43°42' E 007°17'0 0.0
2014-Oct-26 16:32N 43°42' E 007°17'0 0.0
2014-Oct-26 15:32N 43°42' E 007°17'0 0.0
2014-Oct-26 14:32N 43°42' E 007°17'0 0.0
2014-Oct-26 13:20N 43°42' E 007°17'0 0.0
2014-Oct-26 12:20N 43°42' E 007°17'0 0.0
2014-Oct-26 04:32N 43°42' E 007°17'0 0.0
2014-Oct-26 03:32N 43°42' E 007°17'0 0.0
2014-Oct-26 02:32N 43°42' E 007°17'0 0.0
2014-Oct-26 01:32N 43°42' E 007°17'0 0.0
2014-Oct-26 00:32N 43°42' E 007°17'0 0.0
2014-Oct-25 23:32N 43°42' E 007°17'0 0.0
2014-Oct-25 22:32N 43°42' E 007°17'0 0.0
2014-Oct-25 21:32N 43°42' E 007°17'0 0.0
2014-Oct-25 20:32N 43°42' E 007°17'0 0.0
2014-Oct-25 19:32N 43°42' E 007°17'0 0.0
2014-Oct-25 18:32N 43°42' E 007°17'0 0.0
2014-Oct-25 17:32N 43°42' E 007°17'0 0.0
2014-Oct-25 16:32N 43°42' E 007°17'0 0.0
2014-Oct-25 14:32N 43°42' E 007°17'0 0.0
2014-Oct-25 13:32N 43°42' E 007°17'0 0.0
2014-Oct-25 12:32N 43°42' E 007°17'0 0.0
2014-Oct-25 11:33N 43°42' E 007°17'0 0.0
2014-Oct-25 10:33N 43°42' E 007°17'0 0.0
2014-Oct-25 09:31N 43°42' E 007°17'0 0.0
2014-Oct-25 08:31N 43°42' E 007°17'0 0.0
2014-Oct-25 07:33N 43°42' E 007°17'0 0.0
2014-Oct-25 06:33N 43°42' E 007°17'0 0.0
2014-Oct-25 05:33N 43°42' E 007°17'1 0.8
2014-Oct-25 04:33N 43°41' E 007°17'6 5.9
2014-Oct-25 03:32N 43°41' E 007°25'69 9.8
2014-Oct-24 20:33N 44°07' E 008°53'9 9.5
2014-Oct-24 19:34N 44°11' E 009°05'10 9.5
2014-Oct-24 18:33N 44°16' E 009°16'2 0.1
2014-Oct-24 02:10N 44°18' E 009°16'5 7.0
2014-Oct-24 01:30N 44°15' E 009°21'8 8.2
2014-Oct-24 00:33N 44°10' E 009°29'8 8.0
2014-Oct-23 23:33N 44°04' E 009°37'8 7.8
2014-Oct-23 22:33N 44°00' E 009°46'9 9.0
2014-Oct-23 21:33N 44°01' E 009°58'3 2.7
2014-Oct-23 20:26N 44°02' E 010°02'0 0.0
2014-Oct-23 19:26N 44°02' E 010°02'0 0.0
2014-Oct-23 18:32N 44°02' E 010°02'0 0.0
2014-Oct-23 17:26N 44°02' E 010°02'0 0.0
2014-Oct-23 16:26N 44°02' E 010°02'0 0.0
2014-Oct-23 15:08N 44°02' E 010°02'0 0.0
2014-Oct-23 13:20N 44°02' E 010°02'0 0.0
2014-Oct-23 12:32N 44°02' E 010°02'0 0.0
2014-Oct-23 10:32N 44°02' E 010°02'0 0.0
2014-Oct-23 09:23N 44°02' E 010°02'0 0.0
2014-Oct-23 08:29N 44°02' E 010°02'0 0.0
2014-Oct-23 07:29N 44°02' E 010°02'0 0.0
2014-Oct-23 06:29N 44°02' E 010°02'0 0.0
2014-Oct-23 05:23N 44°02' E 010°02'0 0.0
2014-Oct-23 04:32N 44°02' E 010°02'0 0.0
2014-Oct-23 03:29N 44°02' E 010°02'0 0.0
2014-Oct-23 02:29N 44°02' E 010°02'0 0.0
2014-Oct-23 01:32N 44°02' E 010°02'0 0.0
2014-Oct-22 22:08N 44°02' E 010°02'0 0.0
2014-Oct-22 21:29N 44°02' E 010°02'0 0.0
2014-Oct-22 19:32N 44°02' E 010°02'0 0.0
2014-Oct-22 18:23N 44°02' E 010°02'0 0.0
2014-Oct-22 16:29N 44°02' E 010°02'0 0.0
2014-Oct-22 15:32N 44°02' E 010°02'0 0.0
2014-Oct-22 14:33N 44°02' E 010°02'0 0.0
2014-Oct-22 13:33N 44°02' E 010°02'0 0.0
2014-Oct-22 12:33N 44°02' E 010°02'0 0.0
2014-Oct-22 11:33N 44°02' E 010°02'0 0.0
2014-Oct-22 10:33N 44°02' E 010°02'0 0.0
2014-Oct-22 09:32N 44°02' E 010°02'0 0.0
2014-Oct-22 08:33N 44°02' E 010°02'0 0.0
2014-Oct-22 07:33N 44°02' E 010°02'0 0.0
2014-Oct-22 06:32N 44°02' E 010°02'0 0.0
2014-Oct-22 05:33N 44°02' E 010°02'0 0.0
2014-Oct-22 04:33N 44°02' E 010°02'0 0.0
2014-Oct-22 03:33N 44°02' E 010°02'0 0.0
2014-Oct-22 02:33N 44°02' E 010°02'0 0.0
2014-Oct-22 01:33N 44°02' E 010°02'0 0.0
2014-Oct-22 00:33N 44°02' E 010°02'0 0.0
2014-Oct-21 23:33N 44°02' E 010°02'0 0.0
2014-Oct-21 22:33N 44°02' E 010°02'0 0.0
2014-Oct-21 21:33N 44°02' E 010°02'0 0.0
2014-Oct-21 20:33N 44°02' E 010°02'0 0.0
2014-Oct-21 19:33N 44°02' E 010°02'0 0.0
2014-Oct-21 18:33N 44°02' E 010°02'0 0.0
2014-Oct-21 17:33N 44°02' E 010°02'0 0.0
2014-Oct-21 16:33N 44°02' E 010°02'0 0.0
2014-Oct-21 15:33N 44°02' E 010°02'0 0.0
2014-Oct-21 14:33N 44°02' E 010°02'0 0.0
2014-Oct-21 13:33N 44°02' E 010°02'0 0.0
2014-Oct-21 12:33N 44°02' E 010°02'0 0.0
2014-Oct-21 11:33N 44°02' E 010°02'0 0.0
2014-Oct-21 10:33N 44°02' E 010°02'0 0.0
2014-Oct-21 09:33N 44°02' E 010°02'0 0.0
2014-Oct-21 08:33N 44°02' E 010°02'0 0.0
2014-Oct-21 07:33N 44°02' E 010°02'0 0.0
2014-Oct-21 06:33N 44°02' E 010°02'0 0.0
2014-Oct-21 05:33N 44°02' E 010°02'0 0.0
2014-Oct-21 04:33N 44°02' E 010°02'0 0.0
2014-Oct-21 03:33N 44°02' E 010°02'  
Track history (hours):
 
Tides and Currents Weather Stations Pressure Air Temp Water Temp Dewpoint Dewpoint Depression Visibility Wind Speed Wind Dir Waves Ship Positions

Arethusa

Last reported at 2014-Oct-31 03:15 UTC. Time now 2014-Oct-31 07:38 UTC.
Position N 43°06' E 009°39'.

Length 60 m; draft 3 m.

Type: Passenger vessel. MMSI: 249069000.

Date/timePositionNaut miles runAvg speedWind from/ knotsBaromVisibWave heightAir tempDewpointWater temp
2014-Oct-31 03:15N 43°06' E 009°39'7 9.9
2014-Oct-31 02:31N 43°14' E 009°41'1010.0
2014-Oct-31 01:33N 43°23' E 009°44'1010.0
2014-Oct-31 00:34N 43°32' E 009°48'1010.0
2014-Oct-30 23:34N 43°42' E 009°53'1010.0
2014-Oct-30 22:33N 43°51' E 009°57'1010.0
2014-Oct-30 21:33N 44°01' E 010°02'2 1.5
2014-Oct-30 20:32N 44°02' E 010°02'0 0.0
2014-Oct-30 19:29N 44°02' E 010°02'0 0.0
2014-Oct-30 18:32N 44°02' E 010°02'0 0.0
2014-Oct-30 17:32N 44°02' E 010°02'0 0.0
2014-Oct-30 16:32N 44°02' E 010°02'0 0.0
2014-Oct-30 15:29N 44°02' E 010°02'0 0.0
2014-Oct-30 14:32N 44°02' E 010°02'0 0.0
2014-Oct-30 13:32N 44°02' E 010°02'0 0.0
2014-Oct-30 12:32N 44°02' E 010°02'0 0.0
2014-Oct-30 11:33N 44°02' E 010°02'0 0.0
2014-Oct-30 10:33N 44°02' E 010°02'0 0.0
2014-Oct-30 09:33N 44°02' E 010°02'0 0.0
2014-Oct-30 08:33N 44°02' E 010°02'0 0.0
2014-Oct-30 07:33N 44°02' E 010°02'0 0.0
2014-Oct-30 06:33N 44°02' E 010°02'4 4.3
2014-Oct-30 05:33N 44°01' E 009°57'5 4.8
2014-Oct-30 04:31N 44°03' E 009°51'0 0.0
2014-Oct-30 03:31N 44°03' E 009°51'0 0.0
2014-Oct-30 02:31N 44°03' E 009°51'0 0.0
2014-Oct-30 01:31N 44°03' E 009°51'0 0.0
2014-Oct-30 00:31N 44°03' E 009°51'0 0.0
2014-Oct-29 23:31N 44°03' E 009°51'0 0.0
2014-Oct-29 22:31N 44°03' E 009°51'0 0.0
2014-Oct-29 21:31N 44°03' E 009°51'0 0.0
2014-Oct-29 20:28N 44°03' E 009°51'0 0.0
2014-Oct-29 19:31N 44°03' E 009°51'0 0.0
2014-Oct-29 18:31N 44°03' E 009°51'0 0.0
2014-Oct-29 17:31N 44°03' E 009°51'0 0.0
2014-Oct-29 16:28N 44°03' E 009°51'0 0.0
2014-Oct-29 15:31N 44°03' E 009°51'0 0.0
2014-Oct-29 14:31N 44°03' E 009°51'0 0.0
2014-Oct-29 13:31N 44°03' E 009°51'0 0.0
2014-Oct-29 12:31N 44°03' E 009°51'0 0.0
2014-Oct-29 11:31N 44°03' E 009°51'0 0.0
2014-Oct-29 10:31N 44°03' E 009°51'0 0.0
2014-Oct-29 09:31N 44°03' E 009°51'0 0.0
2014-Oct-29 08:31N 44°03' E 009°51'0 0.0
2014-Oct-29 07:31N 44°03' E 009°51'0 0.0
2014-Oct-29 06:31N 44°03' E 009°51'0 0.0
2014-Oct-29 05:31N 44°03' E 009°51'0 0.0
2014-Oct-29 04:31N 44°03' E 009°51'0 0.0
2014-Oct-29 03:31N 44°03' E 009°51'0 0.0
2014-Oct-29 02:31N 44°03' E 009°51'0 0.0
2014-Oct-29 01:31N 44°03' E 009°51'0 0.0
2014-Oct-29 00:31N 44°03' E 009°51'0 0.0
2014-Oct-28 23:31N 44°03' E 009°51'0 0.0
2014-Oct-28 22:31N 44°03' E 009°51'0 0.0
2014-Oct-28 21:31N 44°03' E 009°51'4 4.2
2014-Oct-28 20:34N 44°01' E 009°55'9 9.1
2014-Oct-28 19:33N 44°01' E 009°43'10 9.8
2014-Oct-28 18:33N 44°07' E 009°32'10 9.5
2014-Oct-28 17:33N 44°14' E 009°23'5 0.4
2014-Oct-28 05:32N 44°17' E 009°17'1 0.9
2014-Oct-28 04:32N 44°17' E 009°18'1 1.4
2014-Oct-28 03:31N 44°18' E 009°16'0 0.4
2014-Oct-28 02:27N 44°18' E 009°15'1 0.5
2014-Oct-28 01:24N 44°18' E 009°16'0 0.4
2014-Oct-28 00:14N 44°18' E 009°16'2 2.6
2014-Oct-27 23:33N 44°16' E 009°16'9 9.5
2014-Oct-27 22:33N 44°14' E 009°03'10 9.7
2014-Oct-27 21:33N 44°13' E 008°49'11 9.1
2014-Oct-27 20:20N 44°11' E 008°34'7 9.2
2014-Oct-27 19:33N 44°08' E 008°25'55 8.9
2014-Oct-27 13:22N 43°40' E 007°19'2 2.7
2014-Oct-27 12:32N 43°42' E 007°17'0 0.0
2014-Oct-27 11:32N 43°42' E 007°17'0 0.0
2014-Oct-27 10:32N 43°42' E 007°17'0 0.0
2014-Oct-27 09:32N 43°42' E 007°17'0 0.0
2014-Oct-27 08:32N 43°42' E 007°17'0 0.0
2014-Oct-27 07:32N 43°42' E 007°17'0 0.0
2014-Oct-27 06:32N 43°42' E 007°17'0 0.0
2014-Oct-27 05:32N 43°42' E 007°17'0 0.0
2014-Oct-27 04:32N 43°42' E 007°17'0 0.0
2014-Oct-27 03:32N 43°42' E 007°17'0 0.0
2014-Oct-27 02:32N 43°42' E 007°17'0 0.0
2014-Oct-27 01:32N 43°42' E 007°17'0 0.0
2014-Oct-27 00:32N 43°42' E 007°17'0 0.0
2014-Oct-26 23:32N 43°42' E 007°17'0 0.0
2014-Oct-26 22:32N 43°42' E 007°17'0 0.0
2014-Oct-26 21:32N 43°42' E 007°17'0 0.0
2014-Oct-26 20:32N 43°42' E 007°17'0 0.0
2014-Oct-26 19:32N 43°42' E 007°17'0 0.0
2014-Oct-26 18:32N 43°42' E 007°17'0 0.0
2014-Oct-26 17:32N 43°42' E 007°17'0 0.0
2014-Oct-26 16:32N 43°42' E 007°17'0 0.0
2014-Oct-26 15:32N 43°42' E 007°17'0 0.0
2014-Oct-26 14:32N 43°42' E 007°17'0 0.0
2014-Oct-26 13:20N 43°42' E 007°17'0 0.0
2014-Oct-26 12:20N 43°42' E 007°17'0 0.0
2014-Oct-26 04:32N 43°42' E 007°17'0 0.0
2014-Oct-26 03:32N 43°42' E 007°17'0 0.0
2014-Oct-26 02:32N 43°42' E 007°17'0 0.0
2014-Oct-26 01:32N 43°42' E 007°17'0 0.0
2014-Oct-26 00:32N 43°42' E 007°17'0 0.0
2014-Oct-25 23:32N 43°42' E 007°17'0 0.0
2014-Oct-25 22:32N 43°42' E 007°17'0 0.0
2014-Oct-25 21:32N 43°42' E 007°17'0 0.0
2014-Oct-25 20:32N 43°42' E 007°17'0 0.0
2014-Oct-25 19:32N 43°42' E 007°17'0 0.0
2014-Oct-25 18:32N 43°42' E 007°17'0 0.0
2014-Oct-25 17:32N 43°42' E 007°17'0 0.0
2014-Oct-25 16:32N 43°42' E 007°17'0 0.0
2014-Oct-25 14:32N 43°42' E 007°17'0 0.0
2014-Oct-25 13:32N 43°42' E 007°17'0 0.0
2014-Oct-25 12:32N 43°42' E 007°17'0 0.0
2014-Oct-25 11:33N 43°42' E 007°17'0 0.0
2014-Oct-25 10:33N 43°42' E 007°17'0 0.0
2014-Oct-25 09:31N 43°42' E 007°17'0 0.0
2014-Oct-25 08:31N 43°42' E 007°17'0 0.0
2014-Oct-25 07:33N 43°42' E 007°17'0 0.0
2014-Oct-25 06:33N 43°42' E 007°17'0 0.0
2014-Oct-25 05:33N 43°42' E 007°17'1 0.8
2014-Oct-25 04:33N 43°41' E 007°17'6 5.9
2014-Oct-25 03:32N 43°41' E 007°25'69 9.8
2014-Oct-24 20:33N 44°07' E 008°53'9 9.5
2014-Oct-24 19:34N 44°11' E 009°05'10 9.5
2014-Oct-24 18:33N 44°16' E 009°16'2 0.1
2014-Oct-24 02:10N 44°18' E 009°16'5 7.0
2014-Oct-24 01:30N 44°15' E 009°21'8 8.2
2014-Oct-24 00:33N 44°10' E 009°29'8 8.0
2014-Oct-23 23:33N 44°04' E 009°37'8 7.8
2014-Oct-23 22:33N 44°00' E 009°46'9 9.0
2014-Oct-23 21:33N 44°01' E 009°58'3 2.7
2014-Oct-23 20:26N 44°02' E 010°02'0 0.0
2014-Oct-23 19:26N 44°02' E 010°02'0 0.0
2014-Oct-23 18:32N 44°02' E 010°02'0 0.0
2014-Oct-23 17:26N 44°02' E 010°02'0 0.0
2014-Oct-23 16:26N 44°02' E 010°02'0 0.0
2014-Oct-23 15:08N 44°02' E 010°02'0 0.0
2014-Oct-23 13:20N 44°02' E 010°02'0 0.0
2014-Oct-23 12:32N 44°02' E 010°02'0 0.0
2014-Oct-23 10:32N 44°02' E 010°02'0 0.0
2014-Oct-23 09:23N 44°02' E 010°02'0 0.0
2014-Oct-23 08:29N 44°02' E 010°02'0 0.0
2014-Oct-23 07:29N 44°02' E 010°02'0 0.0
2014-Oct-23 06:29N 44°02' E 010°02'0 0.0
2014-Oct-23 05:23N 44°02' E 010°02'0 0.0
2014-Oct-23 04:32N 44°02' E 010°02'0 0.0
2014-Oct-23 03:29N 44°02' E 010°02'0 0.0
2014-Oct-23 02:29N 44°02' E 010°02'0 0.0
2014-Oct-23 01:32N 44°02' E 010°02'0 0.0
2014-Oct-22 22:08N 44°02' E 010°02'0 0.0
2014-Oct-22 21:29N 44°02' E 010°02'0 0.0
2014-Oct-22 19:32N 44°02' E 010°02'0 0.0
2014-Oct-22 18:23N 44°02' E 010°02'0 0.0
2014-Oct-22 16:29N 44°02' E 010°02'0 0.0
2014-Oct-22 15:32N 44°02' E 010°02'0 0.0
2014-Oct-22 14:33N 44°02' E 010°02'0 0.0
2014-Oct-22 13:33N 44°02' E 010°02'0 0.0
2014-Oct-22 12:33N 44°02' E 010°02'0 0.0
2014-Oct-22 11:33N 44°02' E 010°02'0 0.0
2014-Oct-22 10:33N 44°02' E 010°02'0 0.0
2014-Oct-22 09:32N 44°02' E 010°02'0 0.0
2014-Oct-22 08:33N 44°02' E 010°02'0 0.0
2014-Oct-22 07:33N 44°02' E 010°02'0 0.0
2014-Oct-22 06:32N 44°02' E 010°02'0 0.0
2014-Oct-22 05:33N 44°02' E 010°02'0 0.0
2014-Oct-22 04:33N 44°02' E 010°02'0 0.0
2014-Oct-22 03:33N 44°02' E 010°02'0 0.0
2014-Oct-22 02:33N 44°02' E 010°02'0 0.0
2014-Oct-22 01:33N 44°02' E 010°02'0 0.0
2014-Oct-22 00:33N 44°02' E 010°02'0 0.0
2014-Oct-21 23:33N 44°02' E 010°02'0 0.0
2014-Oct-21 22:33N 44°02' E 010°02'0 0.0
2014-Oct-21 21:33N 44°02' E 010°02'0 0.0
2014-Oct-21 20:33N 44°02' E 010°02'0 0.0
2014-Oct-21 19:33N 44°02' E 010°02'0 0.0
2014-Oct-21 18:33N 44°02' E 010°02'0 0.0
2014-Oct-21 17:33N 44°02' E 010°02'0 0.0
2014-Oct-21 16:33N 44°02' E 010°02'0 0.0
2014-Oct-21 15:33N 44°02' E 010°02'0 0.0
2014-Oct-21 14:33N 44°02' E 010°02'0 0.0
2014-Oct-21 13:33N 44°02' E 010°02'0 0.0
2014-Oct-21 12:33N 44°02' E 010°02'0 0.0
2014-Oct-21 11:33N 44°02' E 010°02'0 0.0
2014-Oct-21 10:33N 44°02' E 010°02'0 0.0
2014-Oct-21 09:33N 44°02' E 010°02'0 0.0
2014-Oct-21 08:33N 44°02' E 010°02'0 0.0
2014-Oct-21 07:33N 44°02' E 010°02'0 0.0
2014-Oct-21 06:33N 44°02' E 010°02'0 0.0
2014-Oct-21 05:33N 44°02' E 010°02'0 0.0
2014-Oct-21 04:33N 44°02' E 010°02'0 0.0
2014-Oct-21 03:33N 44°02' E 010°02'  

Dump ship's entire track history